星链-4767 (STARLINK-4767 )

导读 | 豆包AI

STARLINK-4767是美国太空探索技术公司(SpaceX)星链互联网卫星星座中的一员,于2022年9月19日发射入轨。星链项目旨在通过近地轨道卫星群提供全球高速互联网接入服务,该卫星承担着拓展星座覆盖范围、提升全球网络服务能力的任务,服务于偏远地区网络覆盖、海事航空互联等多个应用场景。

基本信息
目录编号:
53850
目录名称:
STARLINK-4767
国际标识:
2022-114AJ
轨道中心:
EARTH
卫星名称:
星链-4767
卫星全名:
星链-4767 (STARLINK-4767 )
卫星状态:
在轨 (已飞行1319 天)
发射日期:
2022-09-19 UTC
国别 :
美国 (US)
星等 :
--
轨道信息
数据来源 国际轨道数据 AOE轨道数据
星历时间 2026-04-30T14:26:19+0800
11小时前
查看轨道信息
2026-04-30T21:00:00+0800
4小时前
查看轨道信息
半长轴 6917.882km 6917.883km
偏心率 0.0001477 0.000152
轨道倾角 53.219° 53.217°
近地点辐角 94.753° 98.693°
升交点赤经 62.193° 60.966°
平近点角 265.363° 307.225°
近地点 538.723km 538.694km
远地点 540.767km 540.798km
周期 95.438分钟 95.438分钟
每日圈数 15.088397 15.088394
详细信息
固有亮度:
5
最大亮度:
2.5
卫星平台:
Starlink v1.5
覆盖范围:
全球
运营商:
太空探索技术公司
运营商所在国:
美国
制造商(研发单位):
太空探索技术公司
制造商所在国:
美国
使用方式:
暂无
卫星简介
星链(Starlink)计划是由太空探索技术公司(SpaceX)提出的一个巨型低轨卫星互联网星座项目,计划在2019年至2024年间在太空搭建由约1.2万颗卫星组成的“星链”网络,其中1584颗将部署在地球上空550千米处的近地轨道,并从2020年开始工作。该卫星仍在工作。
2D轨道图
3D轨道图
轨道高度分析图
轨道倾角分析图
轨道综合分析图
查看轨道综合分析图